Погода в Ашхабаде

Погода в Ашхабаде : погода сейчас, прогноз погоды и архив. Всё, что Вы хотите узнать о погоде в Ашхабаде!

Поиск расширенной информации на нашем сайте:

Другие новости

Новости СМИ2

Главная страница сайта

Новости сайта

03.07.2017

Напоминаем, что на нашем специализированном сайте Метеоцентр.Азия вы можете получить высокодетализированные автоматические прогнозы погоды по пунктам России, СНГ и мира в авиационном формате (включающие направление и скорость ветра, видимость, явления погоды, количество и форму облачности, нижнюю и верхнюю границу облачности).

Рекомендуем: вред курения

Погода в Ашхабаде - сегодня

Время (UTC), дата Ветер
(°,м/с) 
Видим.   Явления Облачность Т
(°С)
Тd
(°С)
f(%) Тe
(°С)
Pmin
(гПа)
dP
(гПа)
Po
(мм)
O2
(г/м3)
Тmin Tmax R s Состояние
почвы
18 14.08.18 240 (ЮЗ) 10 км    ясно 
+30.7 +9.9 28 +32  1009.1  739  266    +37.5       
21 14.08.18 260 (З) 10 км    ясно 
+28.9 +9.4 30 +30  1009  -0.2  739  268           
00 15.08.18 280 (З) 10 км    ясно 
+28.2 +15.7 47 +39  1009.3  0.3  739  267           
03 15.08.18 300 (СЗ) 10 км    4/0 средняя 
[Ac trans]
+27.6 +16.1 50 +38  1010.8  1.5  752  272           
06 15.08.18 300 (СЗ) 10 км    1/0 средняя 
[Ac trans]
+30.8 +17.3 44 +44  1011.2  0.6  741  265  +26.4         
09 15.08.18 320 (СЗ) 10 км    1/1 1500 м средняя 
[Sc|Ac trans]
+34.2 +14.7 31 +43  1010.4  -0.6  740  262           
12 15.08.18 340 (С) 10 км    1/0 средняя 
[Ac trans]
+37 +12.9 24 +43  1008.5  -1.6  739  260           
15 15.08.18 330 (СЗ) 10 км    ясно 
+35.8 +13.4 26 +42  1008.3  -0.3  739  261    +37.5       
18 15.08.18 240 (ЮЗ) 10 км    ясно 
+31.6 +12.8 32 +37  1009.1  0.4  739  265    +37.5       
21 15.08.18 270 (З) 10 км    ясно 
+30.2 +11.7 32 +34  1009.3  0.1  739  266           
00 16.08.18 280 (З) 10 км    ясно 
+28 +18.1 55 +43  1010.4  740  266           
03 16.08.18 290 (З) 10 км    ясно 
+27.8 +18.4 57 +43  1012.1  1.6  741  267           
06 16.08.18 320 (СЗ) 10 км    ясно 
+31.8 +17 41 +44  1012.5  0.7  742  264  +27.6         
09 16.08.18 350 (С) 10 км    1/0 средняя 
[Ac trans]
+35 +16.9 34 +47  1011.5  -0.7  741  261           
12 16.08.18 310 (СЗ) 10 км    3/3 1500 м 
[Sc]
+36.4 +14.9 28 +45  1009.8  -1.6  740  260           
15 16.08.18 310 (СЗ) 10 км    ясно 
+35.2 +13.9 28 +42  1009  -0.9  740  261    +37       
18 16.08.18 220 (ЮЗ) 10 км    ясно 
+31.6 +14.9 36 +40  1009.6  0.4  740  264    +37       
21 16.08.18 060 (СВ) 10 км    ясно 
+29 +13.8 39 +36  1009.2  -0.5  739  267           
00 17.08.18 320 (СЗ) 10 км    ясно 
+27.6 +13.6 42 +34  1008.9  -0.4  739  268           
03 17.08.18 280 (З) 10 км    ясно 
+27.6 +19.3 61 +45  1009.8  740  266           
06 17.08.18 290 (З) 10 км    ясно 
+31.6 +19.2 48 +49  1009.6  0.1  740  263  +26.4         
09 17.08.18 280 (З) 10 км    1/1 1500 м 
[Sc]
+35.4 +16.4 32 +47  1007.4  -1.8  738  260           
12 17.08.18 120 (ЮВ) 10 км    3/3 1500 м 
[Sc]
+39 +8.9 16 +39  1005  -2.2  737  258           
15 17.08.18 130 (ЮВ) 10 км    1/0 средняя 
[Ac trans]
+37.2 +8 17 +37  1004.3  -0.9  736  260    +39.5       
18 17.08.18 120 (ЮВ) 10 км    ясно 
+33.4 +11.5 26 +37  1004.4  -0.1  736  262    +39.5       
Время (UTC), дата Ветер
(°,м/с) 
Видим.   Явления Облачность Т
(°С)
Тd
(°С)
f(%) Тe
(°С)
Pmin
(гПа)
dP
(гПа)
Po
(мм)
O2
(г/м3)
Тmin Tmax R s Состояние
почвы

Для получения пояснительной информации подведите курсор к названию столбца.

ПОГОДА в Ашхабаде - архив

Всё, что Вы хотите узнать о погоде в Ашхабаде - удобно и подробно!

Выберите нужную дату (начиная с 1 января 2015* года) и нажмите кнопку "Найти".
Будут отображены архивные сводки погоды по пункту Ашхабад, начиная с указанной даты.


Отображать данные в формате CSV (для использования в таблицах Excel)


Внимание! Наш архив погоды предназначен исключительно для личного некоммерческого использования в познавательных целях. Если Вам необходимы официальные справки о состоянии погоды (для производственных, юридических, коммерческих и т.п. целей), обращайтесь в органы Росгидромета.

*Примечание: данная дата относится к архиву по метеостанциям СССР (Россия, СНГ, Балтия).
Архив по метеостанциям Зарубежной Европы и Азии (кроме Китая) хранится 10 дней, по другим регионам земного шара (Китай, Африка, Америка, Австралия, Океания) - 1 день.

Ашхабад - район местоположения метеостанции


Название, широта, долгота, высота метеостанции:
Ашхабад (город) 38°ш. 58.3°д. 208 м над ур. моря [Туркменистан]

Дополнительная информация

В oтличие oт бoльшинства пoгoдных сайтoв мы публикуем пoдрoбную метеoинфoрмацию в детальнoм прoфессиoнальнoм фoрмате.

Характеристики температуры и влажнoсти вoздуха измеряются на высoте 2 м в тени вдали oт зданий и деревьев.
Скoрoсть ветра измеряется на высoте 10 м (на урoвне рoста челoвека скoрoсть ветра ниже в 1.5-2 раза). Если метеoстанция нахoдится в гoрoде или в лесу, тo скoрoсть ветра занижена на 2-4 м/с пo сравнению с oткрытым местoм. Скoрoсть ветра над акватoриями крупных рек и oзёр, а также на вершинах хoлмoв на 2-5 м/с выше, чем в oбычных услoвиях.
Атмoсфернoе давление в разных тoчках местнoсти мoжет значительнo oтличаться oт давления на метеoстанции, в зависимoсти oт услoвий рельефа (при пoдъёме на 10 м давление пoнижается примернo на 1 мм рт.ст.).